Location: Casteau
(50.5142°N, 4.0161°E)
Time: 02:49:42
(UTC+00:00)

NOSS 8 (H) - Pass Details

Date: 18 September 2020
Orbit: 384 x 1790 km, 63.3° (Epoch: 24 October)

Event Time Altitude Azimuth Distance (km) Brightness Sun altitude
Rises 19:08:01 0° 225° (SW) 2,393 8.5 -13.0°
Reaches altitude 10° 19:10:09 10° 226° (SW) 1,456 7.3 -13.3°
Maximum altitude 19:13:13 81° 313° (NW) 396 4.1 -13.7°
Drops below altitude 10° 19:16:17 10° 42° (NE) 1,445 6.7 -14.2°
Enters shadow 19:17:02 - 43° (NE) 1,780 7.2 -14.3°
